[[{"header":{"parameterUnit":"m.s-1","parameterCategory":1,"la1":30.2991,"la2":30.254,"lo1":-89.0895,"lo2":-89.0444,"dy":0.0017,"dx":0.0017,"nx":28,"ny":28,"refTime":"2026-02-15T09:00:00:Z","depth":0,"parameterNumber":2,"parameterNumberName":"U-component_of_WINDS"},"data":[0,0,0,0,0,0,0,0,0,0,0,0,0,0,0,0,0,0,0,0,0,0,0,0,0,0,0,0,0,0,0,0,0,0,0,0,0,0,0,0,0,0,0,0,0,0,0,0,0,0,0,0,0,0,0,0,0,0,0.0883,0.0882,0,0.0768,0.0767,0.0766,0.0675,0.0674,0.0673,0.0672,0.0558,0.0555,0.0553,0,0,0,0,0,0,0,0,0,0,0,0,0,0.1028,0.1026,0.0883,0.0882,0.088,0.0769,0.0767,0.0765,0.0675,0.0674,0.0673,0.0672,0.0558,0.0556,0.0553,0,0,0,0,0,0,0,0,0,0,0,0,0,0.0944,0.1025,0.0884,0.0822,0.0815,0.0769,0.0767,0.0765,0.0675,0.0674,0.0673,0.0671,0.0559,0.0556,0.0553,0.056,0,0,0.0543,0.0541,0,0,0,0,0,0,0,0,0.0949,0.0939,0.0832,0.0826,0.0818,0.0734,0.0776,0.0696,0.0676,0.0729,0.0672,0.0671,0.0618,0.061,0.0591,0.0554,0.0549,0.0542,0.054,0.0539,0.0538,0,0,0,0,0,0,0,0.0955,0.0944,0.0838,0.0831,0.0822,0.0801,0.0788,0.076,0.0682,0.0724,0.0717,0.0704,0.0614,0.0595,0.0588,0.0548,0.0542,0.0539,0.0537,0.0536,0.0512,0.0514,0,0,0,0,0,0,0.097,0.0949,0.0842,0.0834,0.0882,0.08,0.0785,0.0763,0.0682,0.0669,0.0706,0.0701,0.0601,0.0592,0.0583,0.0587,0.0539,0.0536,0.0534,0.0511,0.0513,0.0514,0,0,0,0,0,0,0.0974,0.0961,0.0846,0.089,0.0873,0.0798,0.0775,0.0761,0.0742,0.0669,0.0655,0.07,0.0599,0.0588,0.0566,0.0582,0.0534,0.0531,0.051,0.0512,0.0514,0.0595,0,0,0,0,0,0,0.0978,0.0963,0.0964,0.089,0.0872,0.083,0.0776,0.076,0.0736,0.0728,0.066,0.0647,0.0597,0.0572,0.0563,0.0577,0.0529,0.0508,0.051,0.0513,0.0591,0.0599,0.0607,0,0,0,0,0,0.0984,0.0992,0.0964,0.0952,0.0871,0.0831,0.0821,0.0762,0.0738,0.0739,0.0692,0.0649,0.0582,0.057,0.056,0.0573,0.0507,0.051,0.0513,0.0587,0.0598,0.0607,0,0,0,0,0,0,0.1069,0.0981,0.095,0.0934,0.0891,0.0816,0.0815,0.0776,0.0739,0.0734,0.0664,0.0649,0.0636,0.0602,0.0591,0.0576,0.0539,0.054,0.0599,0.0608,0.0617,0.0626,0.0526,0,0,0,0,0,0.1086,0.1061,0.0985,0.0979,0.0958,0.0891,0.0871,0.0831,0.0783,0.0765,0.0716,0.0673,0.0642,0.0623,0.059,0.0585,0.057,0.0589,0.0597,0.0604,0.0606,0.0603,0.0611,0.0524,0.0524,0.0524,0,0,0.1121,0.107,0.1058,0.0995,0.0956,0.0933,0.0876,0.0853,0.0835,0.0762,0.0738,0.0701,0.0649,0.0636,0.0627,0.0607,0.0627,0.0608,0.0615,0.0613,0.0607,0.0615,0.0623,0.0526,0.0526,0.0526,0,0,0.1173,0.1131,0.1122,0.1085,0.1028,0.0983,0.0981,0.0912,0.0885,0.086,0.0805,0.0783,0.0731,0.0696,0.0672,0.0713,0.0673,0.0704,0.0748,0.0745,0.0752,0.0758,0.0774,0.078,0.0706,0.0706,0.0706,0,0.1224,0.1185,0.1122,0.1103,0.1077,0.1009,0.1001,0.0968,0.0904,0.0888,0.0866,0.08,0.0759,0.0738,0.0748,0.073,0.0727,0.0712,0.0756,0.0761,0.0765,0.078,0.0786,0.071,0.071,0.071,0.0709,0,0.1252,0.1226,0.1226,0.1165,0.1139,0.1125,0.1062,0.1044,0.1005,0.0964,0.0941,0.089,0.0847,0.0838,0.0801,0.0812,0.0802,0.0769,0.073,0.0779,0.0792,0.0797,0.0717,0.0715,0.0714,0.0713,0,0,0.1354,0.126,0.1261,0.1233,0.1166,0.1145,0.1129,0.1086,0.1073,0.1031,0.1017,0.0975,0.0944,0.0916,0.0874,0.0872,0.091,0.0839,0.0837,0.0855,0.0922,0.0948,0.0955,0.0883,0.0883,0.0884,0.0926,0,0.1396,0.1362,0.1306,0.1291,0.1268,0.1203,0.119,0.1148,0.1109,0.1084,0.1041,0.1013,0.0974,0.0957,0.0952,0.0906,0.0922,0.0902,0.087,0.087,0.0887,0.0961,0.0988,0.1031,0.0931,0.0932,0.0932,0,0.144,0.1403,0.1386,0.1321,0.1309,0.1298,0.1255,0.1232,0.1184,0.1155,0.1126,0.108,0.1061,0.1026,0.1,0.0987,0.0971,0.0947,0.0947,0.0943,0.0905,0.0961,0.1043,0.105,0.0939,0.0938,0.0938,0,0.1519,0.1463,0.1446,0.1425,0.1349,0.1343,0.1311,0.1261,0.124,0.1203,0.1189,0.115,0.113,0.1101,0.1047,0.1026,0.1028,0.0988,0.1006,0.1007,0.101,0.101,0.1092,0.0998,0.0997,0.0997,0.0997,0,0.1572,0.1565,0.1481,0.147,0.1461,0.1397,0.1389,0.1352,0.1309,0.1291,0.1233,0.1218,0.1147,0.1124,0.1082,0.1068,0.1059,0.1037,0.1026,0.1042,0.1046,0.1032,0.1028,0.0999,0.0999,0.0998,0.0998,0,0.1658,0.1601,0.1579,0.1509,0.1492,0.1488,0.1429,0.1418,0.1376,0.1354,0.1346,0.128,0.125,0.1193,0.1148,0.1119,0.1115,0.1095,0.1132,0.1125,0.1147,0.1146,0.1223,0.1231,0.1131,0.1132,0.1133,0,0.1696,0.1689,0.1619,0.1603,0.1574,0.1549,0.1526,0.1464,0.1444,0.1389,0.1385,0.1351,0.132,0.1276,0.1225,0.119,0.1169,0.1199,0.1164,0.1182,0.1172,0.1173,0.1173,0.1207,0.1209,0.121,0.1211,0,0.1771,0.1744,0.1714,0.1675,0.165,0.1616,0.1579,0.157,0.1499,0.148,0.1448,0.1425,0.1378,0.1346,0.1304,0.1272,0.1231,0.1222,0.1225,0.1242,0.1264,0.1254,0.1155,0.1221,0.122,0.1219,0.1218,0.1218,0.1835,0.1826,0.1776,0.1745,0.1711,0.1679,0.1665,0.1622,0.1594,0.1552,0.1517,0.1489,0.1443,0.1382,0.1354,0.1332,0.1311,0.1315,0.1316,0.1318,0.1326,0.1267,0.1324,0.1323,0.1323,0.1323,0.1322,0,0.1907,0.1873,0.1845,0.1796,0.1772,0.1734,0.1692,0.1675,0.1651,0.1611,0.1583,0.1548,0.1516,0.1463,0.1428,0.1421,0.1401,0.1414,0.1414,0.1408,0.1345,0.1347,0.1431,0.1431,0.1431,0.1431,0.1431,0.1431,0.1943,0.1926,0.1894,0.1861,0.1826,0.1798,0.1778,0.1748,0.1716,0.168,0.1654,0.1619,0.1574,0.1535,0.1505,0.1491,0.1481,0.15,0.148,0.1422,0.1412,0.1403,0.1404,0.1498,0.1499,0.1545,0.1545,0.1545]},{"header":{"parameterUnit":"m.s-1","parameterCategory":1,"la1":30.2991,"la2":30.254,"lo1":-89.0895,"lo2":-89.0444,"dy":0.0017,"dx":0.0017,"nx":28,"ny":28,"refTime":"2026-02-15T09:00:00:Z","depth":0,"parameterNumber":3,"parameterNumberName":"V-component_of_WINDS"},"data":[0,0,0,0,0,0,0,0,0,0,0,0,0,0,0,0,0,0,0,0,0,0,0,0,0,0,0,0,0,0,0,0,0,0,0,0,0,0,0,0,0,0,0,0,0,0,0,0,0,0,0,0,0,0,0,0,0,0,6.8703,6.8704,0,6.8828,6.8829,6.8831,6.8806,6.8803,6.8801,6.8799,6.8924,6.8929,6.8935,0,0,0,0,0,0,0,0,0,0,0,0,0,6.8439,6.8444,6.8703,6.8704,6.8706,6.8828,6.883,6.8831,6.8806,6.8803,6.88,6.8798,6.8922,6.8929,6.8935,0,0,0,0,0,0,0,0,0,0,0,0,0,6.8558,6.8446,6.8702,6.8708,6.871,6.8827,6.883,6.8832,6.8807,6.8803,6.88,6.8796,6.892,6.8928,6.8936,6.9055,0,0,6.8961,6.8965,0,0,0,0,0,0,0,0,6.8551,6.8568,6.8706,6.8708,6.871,6.8798,6.8782,6.8906,6.8807,6.877,6.8799,6.8795,6.8885,6.8895,6.8926,6.9061,6.9066,6.8962,6.8967,6.897,6.8973,0,0,0,0,0,0,0,6.8543,6.8562,6.8752,6.8708,6.871,6.8703,6.8717,6.8806,6.8845,6.8773,6.8771,6.8787,6.8885,6.8918,6.8929,6.9068,6.8962,6.8969,6.8974,6.8977,6.9309,6.9312,0,0,0,0,0,0,6.8533,6.8555,6.8748,6.8756,6.8621,6.8711,6.8726,6.8773,6.8844,6.8851,6.8789,6.8785,6.8906,6.892,6.8933,6.908,6.897,6.8978,6.8983,6.9305,6.9309,6.9314,0,0,0,0,0,0,6.8528,6.8551,6.8743,6.8655,6.8679,6.8719,6.8773,6.8777,6.8811,6.8856,6.8863,6.8817,6.8904,6.8922,6.9026,6.9084,6.8982,6.8989,6.93,6.9306,6.9312,6.9372,0,0,0,0,0,0,6.852,6.8549,6.8595,6.8657,6.8684,6.8834,6.8776,6.8782,6.8825,6.8821,6.8884,6.8891,6.8903,6.9014,6.9034,6.9093,6.8995,6.9295,6.9303,6.931,6.9365,6.9379,6.9391,0,0,0,0,0,6.8511,6.8606,6.8597,6.8621,6.8743,6.8838,6.8853,6.8866,6.883,6.8877,6.8906,6.8889,6.9073,6.9024,6.9047,6.9109,6.9292,6.9301,6.9309,6.9359,6.9376,6.9391,0,0,0,0,0,0,6.8548,6.8614,6.8605,6.8723,6.8775,6.8833,6.8893,6.8884,6.8946,6.8939,6.8951,6.8966,6.9072,6.91,6.9045,6.9229,6.9177,6.9191,6.9207,6.9224,6.9237,6.9229,6.9002,0,0,0,0,0,6.857,6.8643,6.8696,6.8794,6.8821,6.8853,6.8894,6.89,6.8954,6.8975,6.9012,6.9064,6.9134,6.918,6.9247,6.9368,6.9382,6.9422,6.9435,6.9445,6.9458,6.9526,6.9545,6.9343,6.9342,6.9342,0,0,6.8617,6.8661,6.8706,6.8803,6.8844,6.8919,6.8871,6.8951,6.9007,6.8987,6.9089,6.9117,6.9176,6.929,6.9342,6.9317,6.9517,6.9457,6.9465,6.9472,6.9537,6.9556,6.9573,6.9348,6.9347,6.9346,0,0,6.874,6.878,6.8869,6.8911,6.8974,6.8995,6.9016,6.9076,6.9095,6.9197,6.9184,6.9249,6.9369,6.9412,6.945,6.9591,6.9578,6.9612,6.9681,6.9747,6.9763,6.9778,6.983,6.9849,6.9623,6.9623,6.9624,0,6.879,6.8903,6.8914,6.8998,6.9041,6.9027,6.9117,6.9157,6.9238,6.9268,6.9239,6.9391,6.9429,6.9554,6.9589,6.9619,6.9644,6.9606,6.976,6.9775,6.9788,6.9839,6.9858,6.9627,6.9627,6.9627,6.9626,0,6.8962,6.904,6.9103,6.9185,6.9235,6.932,6.9345,6.9394,6.9395,6.9418,6.9523,6.9569,6.9646,6.9675,6.9676,6.9801,6.9784,6.9757,6.9706,6.9811,6.9859,6.9878,6.9633,6.9632,6.963,6.9629,0,0,6.9114,6.9201,6.9224,6.9262,6.9331,6.9392,6.9476,6.9553,6.9596,6.9652,6.9724,6.9826,6.9803,6.9846,6.9851,6.9909,7.0021,6.9876,6.9877,6.9904,7.0164,7.0185,7.0207,7.0011,7.0015,7.0018,7.016,0,6.9245,6.9398,6.9411,6.9547,6.9621,6.9609,6.9683,6.9733,6.9756,6.9822,6.9847,6.9921,6.9883,6.9909,6.9965,6.9995,7.0073,6.9984,7.008,7.0083,7.0069,7.0232,7.0255,7.0387,7.0178,7.0181,7.0183,0,6.942,6.9484,6.9628,6.9689,6.972,6.9787,6.9859,6.9921,6.9978,6.9991,7.0039,7.0037,7.0124,7.0068,7.0189,7.0128,7.0167,7.0188,7.0193,7.0205,7.0142,7.0251,7.0428,7.045,7.0212,7.021,7.0208,0,6.952,6.9642,6.9745,6.9776,6.9849,6.9896,6.9928,6.9982,7.0027,7.0089,7.0119,7.019,7.023,7.0284,7.0301,7.0258,7.0423,7.0367,7.0437,7.0437,7.0475,7.0473,7.0664,7.0495,7.0495,7.0494,7.0494,0,6.9668,6.9758,6.9791,6.9855,6.9954,6.9968,7.0066,7.0095,7.0143,7.0212,7.0204,7.0268,7.0285,7.0353,7.0366,7.0466,7.0483,7.0496,7.05,7.0499,7.0498,7.0527,7.052,7.05,7.0498,7.0497,7.0496,0,6.9798,6.9824,6.9936,6.9995,7.0012,7.0084,7.0135,7.0196,7.0218,7.0305,7.0326,7.0361,7.044,7.0462,7.0556,7.0565,7.0684,7.0676,7.0665,7.0666,7.0737,7.0731,7.0956,7.0988,7.0795,7.0797,7.0798,0,6.9893,6.9962,7.0029,7.0076,7.0111,7.0184,7.0232,7.0247,7.0297,7.0367,7.042,7.0498,7.0562,7.0689,7.0723,7.0795,7.0791,7.0865,7.0802,7.08,7.0796,7.0793,7.0801,7.0878,7.088,7.0882,7.0883,0,7.0058,7.0068,7.0137,7.0211,7.0268,7.0327,7.0383,7.0421,7.0444,7.05,7.0582,7.0632,7.0729,7.0807,7.0881,7.0913,7.0903,7.0902,7.0923,7.0925,7.0917,7.0926,7.0701,7.0898,7.0896,7.0895,7.0894,7.0894,7.0176,7.0237,7.0296,7.0373,7.0417,7.047,7.0532,7.0562,7.0631,7.0713,7.0717,7.0806,7.0861,7.0959,7.0995,7.1065,7.1043,7.1072,7.108,7.1088,7.1096,7.0904,7.1078,7.1077,7.1077,7.1077,7.1076,0,7.0344,7.0381,7.0452,7.0532,7.0593,7.0578,7.064,7.0692,7.0771,7.0824,7.0888,7.0982,7.1059,7.1098,7.1174,7.1222,7.122,7.1242,7.124,7.1248,7.1109,7.1086,7.1243,7.1243,7.1243,7.1243,7.1243,7.1243,7.0439,7.0543,7.056,7.0686,7.0722,7.0811,7.0848,7.0897,7.0939,7.1046,7.111,7.1135,7.1183,7.1263,7.1332,7.1341,7.1371,7.1397,7.1404,7.1274,7.1258,7.1241,7.1219,7.1402,7.1402,7.1537,7.1539,7.1539]}]]